Location: ???? ?????
(37.9132°N, 22.9869°E)
Time: 08:43:41
(UTC+00:00)

BlueWalker 3 - Visible Passes

Search period start: 11 October 2024 00:00
Search period end: 21 October 2024 00:00
Orbit: 472 x 485 km, 53.2° (Epoch: 10 October)

Date Brightness Start Highest point End Pass type
(mag) Time Alt. Az. Time Alt. Az. Time Alt. Az.
11 Oct 4.6 02:19:20 12° NNE 02:19:20 12° NNE 02:19:44 10° NNE visible
18 Oct 4.1 03:52:25 10° NNW 03:55:08 19° NNE 03:57:50 10° ENE visible
19 Oct 4.2 03:23:53 10° NNW 03:26:26 17° NNE 03:28:59 10° ENE visible
20 Oct 4.3 02:56:05 13° N 02:57:42 16° NNE 03:00:04 10° ENE visible
